This demonstration page uses our WeatherBlox Daily Observations layout. Learn more.

Left ArrowRight Arrow

39.51506, -84.39828

Hourly Observations for July 1, 2020

Temp ( °F °C ) Dew Point ( °F °C ) Humidity (%) Winds ( mph kmh ) Pressure ( in mb ) Visibility ( mi km ) Precip ( " mm )
12:15 am 00:15 Hazy 68 20 N/A N/A N N/A 29.91 1013 5 8 N/A
12:35 am 00:35 Clear with Mist and Fog 68 20 N/A N/A N N/A 29.90 1013 4 6 N/A
12:55 am 00:55 Mostly Cloudy with Fog 68 20 N/A N/A N N/A 29.90 1013 1 1 0.01 0.25
1:15 am 01:15 Mostly Cloudy with Mist and Fog 66 19 N/A N/A N N/A 29.91 1013 1 1 N/A
1:35 am 01:35 Clear 68 20 N/A N/A N N/A 29.90 1013 7 11 N/A
1:55 am 01:55 Hazy 66 19 N/A N/A N N/A 29.91 1013 5 8 N/A
2:15 am 02:15 Mostly Cloudy with Mist and Fog 66 19 N/A N/A N N/A 29.91 1013 1 2 N/A
2:35 am 02:35 Hazy 66 19 N/A N/A NNE 3 6 29.90 1012 5 8 N/A
2:55 am 02:55 Hazy 66 19 N/A N/A NNE 3 6 29.90 1012 7 11 0.01 0.25
3:15 am 03:15 Hazy 66 19 N/A N/A NNE 5 7 29.90 1012 5 8 N/A
3:35 am 03:35 Hazy 68 20 N/A N/A N N/A 29.89 1012 5 8 N/A
3:55 am 03:55 Clear with Mist and Fog 68 20 N/A N/A N N/A 29.88 1012 3 5 N/A
4:15 am 04:15 Mostly Cloudy with Mist and Fog 66 19 N/A N/A WSW 3 6 29.90 1012 2 3 N/A
4:35 am 04:35 Mostly Cloudy with Mist and Fog 66 19 N/A N/A N N/A 29.90 1012 2 2 N/A
4:55 am 04:55 Mostly Clear with Fog 66 19 N/A N/A N N/A 29.91 1013 0 0 N/A
5:15 am 05:15 Mostly Cloudy with Fog N/A N/A N/A N N/A N/A 0 0 N/A
5:35 am 05:35 Mostly Cloudy with Mist and Fog N/A N/A N/A N N/A N/A 2 3 N/A
5:55 am 05:55 Mostly Cloudy with Mist and Fog 66 19 N/A N/A NNE 3 6 29.92 1013 2 3 0.01 0.25
6:15 am 06:15 Mostly Cloudy with Mist and Fog 66 19 N/A N/A N N/A 29.92 1013 2 2 N/A
6:35 am 06:35 Cloudy with Mist and Fog 66 19 N/A N/A N N/A 29.93 1013 1 1 N/A
6:55 am 06:55 Cloudy with Mist and Fog 66 19 N/A N/A N N/A 29.94 1014 2 3 N/A
7:15 am 07:15 Cloudy with Fog 68 20 N/A N/A N N/A 29.93 1014 0 0 N/A
7:35 am 07:35 Partly Cloudy with Mist and Fog 68 20 N/A N/A N N/A 29.93 1014 3 4 N/A
7:55 am 07:55 Cloudy with Mist and Fog 68 20 N/A N/A N N/A 29.93 1014 3 5 N/A
8:15 am 08:15 Cloudy with Mist and Fog 70 21 N/A N/A N N/A 29.93 1014 2 2 N/A
8:35 am 08:35 Mostly Cloudy with Mist and Fog 70 21 N/A N/A ENE 3 6 29.93 1014 2 3 N/A
8:55 am 08:55 Sunny with Mist and Fog 72 22 N/A N/A ENE 5 7 29.93 1014 3 5 N/A
9:15 am 09:15 Sunny with Mist and Fog 73 22.6 73 22.5 99 99 ENE 5 7 29.93 1013 4 6 N/A
9:35 am 09:35 Sunny with Mist and Fog 74 23.5 73 22.6 95 95 NE 3 6 29.93 1013 7 11 0.01 0.25
9:55 am 09:55 Sunny 76 24.6 72 22.4 88 88 N N/A 29.92 1013 10 16 0.01 0.25
10:15 am 10:15 Sunny 79 26 72 22 79 79 N N/A 29.92 1013 10 16 N/A
10:35 am 10:35 Sunny 80 26.7 71 21.9 75 75 N N/A 29.92 1013 10 16 N/A
10:55 am 10:55 Sunny 80 26.7 70 21.2 72 72 E 3 6 29.92 1013 10 16 N/A
11:15 am 11:15 Sunny 82 27.6 71 21.8 71 71 N N/A 29.92 1013 10 16 N/A
11:35 am 11:35 Sunny 82 27.7 71 21.9 71 71 NNE 3 6 29.92 1013 10 16 N/A
11:55 am 11:55 Sunny 82 27.8 71 21.8 70 70 N N/A 29.92 1013 10 16 N/A
12:15 pm 12:15 Partly Cloudy 82 28 72 22 70 70 N N/A 29.92 1013 10 16 N/A
12:35 pm 12:35 Partly Cloudy 84 28.7 71 21.9 67 67 N N/A 29.91 1013 7 11 N/A
12:55 pm 12:55 Mostly Cloudy 83 28.3 72 22.2 70 70 NNE 3 6 29.92 1013 10 16 N/A
1:15 pm 13:15 Partly Cloudy 86 30 71 21.7 61 61 N N/A 29.90 1013 10 16 0.01 0.25
1:35 pm 13:35 Mostly Cloudy 84 28.8 71 21.4 64 64 N N/A 29.90 1013 10 16 0.01 0.25
1:55 pm 13:55 Mostly Cloudy 84 28.9 70 21 62 62 N N/A 29.90 1013 10 16 0.01 0.25
2:15 pm 14:15 Sunny 85 29.4 68 20.1 57 57 N N/A 29.90 1013 10 16 N/A
2:35 pm 14:35 Partly Cloudy 88 31.1 71 21.5 57 57 N N/A 29.89 1012 10 16 N/A
2:55 pm 14:55 Mostly Cloudy 88 31 70 21 55 55 N 5 7 29.88 1012 10 16 N/A
3:15 pm 15:15 Sunny 86 30.2 71 21.8 61 61 WNW 3 6 29.87 1012 10 16 N/A
3:35 pm 15:35 Sunny 88 31 70 21.1 56 56 N N/A 29.87 1012 10 16 N/A
3:55 pm 15:55 Sunny 89 31.4 69 20.6 53 53 NE 5 7 29.86 1011 10 16 N/A
4:15 pm 16:15 Cloudy 88 31 70 21 55 55 ENE 8 13 29.85 1011 10 16 N/A
4:35 pm 16:35 Cloudy N/A N/A N/A NE 7 11 N/A 10 16 N/A
4:55 pm 16:55 Sunny N/A N/A N/A ENE 10 17 N/A 10 16 N/A
5:15 pm 17:15 Sunny 88 31 70 21 55 55 NE 7 11 29.85 1011 10 16 N/A
5:35 pm 17:35 Sunny 88 31 68 20 52 52 E 7 11 29.85 1011 10 16 N/A
5:55 pm 17:55 Partly Cloudy N/A N/A N/A ENE 8 13 N/A 7 11 N/A
6:15 pm 18:15 Sunny 88 31.2 67 19.3 49 49 E 3 6 29.85 1011 10 16 N/A
6:35 pm 18:35 Sunny 88 31 66 19 49 49 ENE 6 9 29.85 1011 10 16 N/A
6:55 pm 18:55 Sunny 88 31 66 19 49 49 ENE 7 11 29.84 1010 10 16 N/A
7:15 pm 19:15 Sunny 86 30.2 67 19.3 52 52 ENE 6 9 29.85 1011 10 16 N/A
7:35 pm 19:35 Sunny 86 30 67 19.2 52 52 NE 5 7 29.85 1011 10 16 N/A
7:55 pm 19:55 Sunny 85 29.6 68 19.8 56 56 E 5 7 29.86 1011 10 16 N/A
8:15 pm 20:15 Sunny 85 29.2 65 18.3 52 52 E 6 9 29.86 1011 10 16 N/A
8:35 pm 20:35 Sunny 84 28.8 66 18.8 55 55 N N/A 29.87 1012 10 16 N/A
8:55 pm 20:55 Sunny 77 25 73 22.9 88 88 N N/A 29.89 1012 10 16 N/A
9:15 pm 21:15 Clear 76 24.2 72 22 88 88 NNW 3 6 29.89 1012 10 16 0.01 0.25
9:35 pm 21:35 Clear 73 22.9 70 21.3 91 91 N N/A 29.90 1012 10 16 0.01 0.25
9:55 pm 21:55 Cloudy 75 23.8 71 21.5 87 87 N N/A 29.91 1013 10 16 0.01 0.25
10:15 pm 22:15 Cloudy 73 23 71 21.6 92 92 N N/A 29.92 1013 10 16 N/A
10:35 pm 22:35 Clear 73 22.6 70 21.1 91 91 N N/A 29.93 1013 10 16 N/A
10:55 pm 22:55 Clear 73 22.5 69 20.5 89 89 N N/A 29.93 1014 10 16 N/A
11:15 pm 23:15 Clear 71 21.7 69 20.4 92 92 NNE 5 7 29.92 1013 10 16 N/A
11:35 pm 23:35 Clear 71 21.7 67 19.4 87 87 NNE 5 7 29.93 1014 10 16 N/A
11:55 pm 23:55 Clear 70 21.2 66 18.9 87 87 N N/A 29.93 1014 10 16 N/A

Powered by AerisWeather